Regional Weather Roundup
Issued by NWS

Home | Current Version | Previous Version | Text Only | Print | Product List | Glossary On
Versions: 1 2 3 4 5 6 7 8 9 10 11 12 13 14 15 16 17 18 19 20 21 22 23 24 25 26 27 28 29 30 31 32 33 34 35 36 37 38 39 40 41 42 43 44 45 46 47 48 49 50
000
ASUS43 KLSX 212110
RWRMO

WEATHER SUMMARY FOR MISSOURI
NATIONAL WEATHER SERVICE SPRINGFIELD MO
400 PM CDT SAT APR 21 2018

NOTE: "FAIR" INDICATES FEW OR NO CLOUDS BELOW 12,000 FEET WITH NO
       SIGNIFICANT WEATHER AND/OR OBSTRUCTIONS TO VISIBILITY.
       CURRENT SKY AND/OR WEATHER CONDITIONS ARE NOT AVAILABLE FOR
       CHILLICOTHE AND FARMINGTON.

MOZ001>031-035>038-043-044-053-054-212200-
...NORTHERN AND WESTERN MISSOURI...

CITY           SKY/WX    TMP DP  RH WIND       PRES   REMARKS
KANSAS CTY INT CLOUDY    63  32  31 E14       30.13F
KANSAS C DTWN  CLOUDY    66  32  28 E6G20     30.11F
LEE`S SUMMIT   CLOUDY    64  33  31 E8G21     30.13F
ST JOSEPH      PTSUNNY   61  33  35 NE10      30.16F
CHILLICOTHE      N/A     63  29  27 E12G21    30.19F
KIRKSVILLE     CLOUDY    60  28  29 E16G22    30.22F

$$
MOZ066>068-077>081-088>096-101>105-212200-
...SOUTHWEST MISSOURI...

CITY           SKY/WX    TMP DP  RH WIND       PRES   REMARKS
SPRINGFIELD    CLOUDY    66  39  37 SE13G20   30.08S
JOPLIN         LGT RAIN  62  41  46 E14G20    30.07F
BRANSON        CLOUDY    66  39  37 E9G17     30.10R

$$
MOZ032>034-039>042-045>050-055>058-069>072-212200-
...CENTRAL MISSOURI...

CITY           SKY/WX    TMP DP  RH WIND       PRES   REMARKS
COLUMBIA       CLOUDY    66  27  23 NE17G23   30.15F
JEFFERSON CITY CLOUDY    66  25  21 E15G23    30.15F
ROLLA          CLOUDY    66  31  27 E12       30.13F
SEDALIA        CLOUDY    67  33  28 E15       30.14F
WHITEMAN AFB   PTSUNNY   67  33  29 E12       30.09F
WARRENSBURG    CLOUDY    66  32  28 NE14      30.13R
OSAGE BEACH    CLOUDY    70  34  26 E16       30.11F

$$
MOZ051-052-059>065-212200-
...EAST CENTRAL MISSOURI...

CITY           SKY/WX    TMP DP  RH WIND       PRES   REMARKS
ST LOUIS INTL  CLOUDY    65  31  28 E15       30.19F
SPIRIT OF STL  CLOUDY    66  32  28 E13       30.16F
ST CHARLES     CLOUDY    64  32  30 E18       30.18F

$$
MOZ072>076-082>087-097>100-106>115-212200-
...SOUTH CENTRAL AND SOUTHEAST MISSOURI...

CITY           SKY/WX    TMP DP  RH WIND       PRES   REMARKS
CAPE GIRARDEAU FAIR      71  40  32 E13G22    30.11F
FARMINGTON     MOSUNNY   69  38  32 E12G17    30.15F
POPLAR BLUFF   FAIR      72  35  25 E8G17     30.12R
WEST PLAINS    MOSUNNY   67  33  28 SE9G21    30.12S

$$



USA.gov is the U.S. government's official web portal to all federal, state and local government web resources and services.